Skip Page Navigation
NASA JPL Caltech
NASA Logo - Jet Propulsion Laboratory + View the NASA Portal
+ Near-Earth Object (NEO) Program
Search JPL
JPL Home Earth Solar System Stars & Galaxies Technology
JPL Solar System Dynamics
BODIES ORBITS EPHEMERIDES TOOLS PHYSICAL DATA DISCOVERY FAQ SITE MAP
JPL Small-Body Database Browser
Search: [ help ]  
100085 (1992 UY4)
Classification: Apollo [NEO, PHA]          SPK-ID: 2100085
Ephemeris | Orbit Diagram | Orbital Elements | Physical Parameters | Discovery Circumstances | Close-Approach Data ]

[ hide orbit diagram ]
Orbit Diagram
Note: Make sure you have Java enabled on your browser to see the applet. This applet is provided as a 3D orbit visualization tool. The applet was implemented using 2-body methods, and hence should not be used for determining accurate long-term trajectories (over several years or decades) or planetary encounter circumstances. For accurate long-term ephemerides, please instead use our Horizons system.
Orbit Viewer

Additional Notes: the orbits shown in the applet are color coded. The planets are white lines, and the asteroid/comet is a blue line. The bright white line indicates the portion of the orbit that is above the ecliptic plane, and the darker portion is below the ecliptic plane. Likewise for the asteroid/comet orbit, the light blue indicates the portion above the ecliptic plane, and the dark blue the portion below the ecliptic plane.

Orbit Viewer applet originally written and kindly provided by Osamu Ajiki (AstroArts), and further modified by Ron Baalke (JPL).


Orbital Elements at Epoch 2456400.5 (2013-Apr-18.0) TDB
Reference: JPL 82 (heliocentric ecliptic J2000)
 Element Value Uncertainty (1-sigma)   Units 
e .624926092694602 7.6325e-09  
a 2.639696446499318 1.4932e-08 AU
q .9900812602886737 1.9445e-08 AU
i 2.803265508595285 3.6044e-06 deg
node 308.4083650910055 1.3328e-05 deg
peri 38.33217370398918 1.4379e-05 deg
M 280.7094513268682 5.4676e-06 deg
tp 2456745.523225453105
(2014-Mar-29.02322545)
2.6699e-05 JED
period 1566.496426644184
4.29
1.3291e-05
3.639e-08
d
yr
n .2298122063203218 1.9499e-09 deg/d
Q 4.289311632709962 2.4263e-08 AU
  Orbit Determination Parameters
   # obs. used (total)      551  
   # delay obs. used      8  
   # Doppler obs. used      0  
   data-arc span      9708 days (26.58 yr)  
   first obs. used      1979-06-29  
   last obs. used      2006-01-26  
   planetary ephem.      DE405  
   SB-pert. ephem.      SB405-CPV-2  
   condition code      0  
   fit RMS      .40774  
   data source      ORB  
   producer      Otto Matic  
   solution date      2013-Apr-29 15:38:40  

Additional Information
 Earth MOID = .0153049 AU 
 T_jup = 3.082 
[ show covariance matrix ]

Ephemeris | Orbit Diagram | Orbital Elements | Physical Parameters | Discovery Circumstances | Close-Approach Data ]

Physical Parameter Table
Parameter Symbol Value Units Sigma Reference Notes
absolute magnitude H 17.624 mag .49925 82 autocmod 2.5c
rotation period rot_per 12.9060 h n/a Asteroid Lightcurve DataBase (Rev. 2013-May-01) Published Reference List:
[Behrend, R. (2005) Observatoire de Geneve web site, http://obswww.unige.ch/~behrend/page_cou.html]
[Warner, B.D.; Jacques, C.; Pimentel, E.; Crawford, G.; et al. (2006) Minor Planet Bul. 33, 20-21.]

100085 (1992 UY4)          Discovered 1992-Oct-25 by Shoemaker, C. S. at Palomar (675)
Reference: 20051019/Numbers.arcLast Updated: 2005-10-26

[ show close-approach data ]
Ephemeris | Orbit Diagram | Orbital Elements | Physical Parameters | Discovery Circumstances | Close-Approach Data ]
ABOUT SSD CREDITS/AWARDS PRIVACY/COPYRIGHT GLOSSARY LINKS
FirstGov 2013-May-18 18:06 UT
(server date/time)  
NASA Home Page
Site Manager:   Donald K. Yeomans
Webmaster  Alan B. Chamberlin